Regional Weather Roundup
Issued by NWS

Home | Current Version | Previous Version | Graphics & Text | Print | Product List | Glossary On
Versions: 1 2 3 4 5 6 7 8 9 10 11 12 13 14 15 16 17 18 19 20 21 22 23 24 25 26 27 28 29 30 31 32 33 34 35 36 37 38 39 40 41 42 43 44 45 46 47 48 49 50
000
ASUS45 KPSR 280400
RWRAZ

PRELIMINARY ARIZONA REGIONAL HOURLY WEATHER ROUNDUP
NATIONAL WEATHER SERVICE PHOENIX AZ
900 PM MST SUN JUL 27 2014

NOTE: FAIR INDICATES FEW OR NO CLOUDS BELOW 12,000 FEET WITH NO
SIGNIFICANT WEATHER AND/OR OBSTRUCTIONS TO VISIBILITY.

AZZ001>003-036-280500-
NORTHWEST ARIZONA

CITY           SKY/WX    TMP DP  RH WIND       PRES   REMARKS
KINGMAN        PTCLDY    82  55  39 S6        30.09R HAZE
$$

AZZ004>008-015-016-018-280500-
NORTH CENTRAL ARIZONA

CITY           SKY/WX    TMP DP  RH WIND       PRES   REMARKS
GRAND CANYON   RAIN      61  56  83 E20       30.42R
WILLIAMS       CLOUDY    59  54  82 SE6       30.46R
PRESCOTT       CLOUDY    79  49  34 SE8       30.24R
FLAGSTAFF      LGT RAIN  63  49  60 NW9       30.43R
PAYSON         CLOUDY    73  52  46 E5        30.27R
PAGE           CLOUDY    81  54  39 SW20G35   30.20R
$$

AZZ009>014-017-280500-
NORTHEAST ARIZONA

CITY           SKY/WX    TMP DP  RH WIND       PRES   REMARKS
WINSLOW        NOT AVBL
SAINT JOHNS    CLOUDY    71  54  54 NW3       30.31R
WINDOW ROCK    CLOUDY    64  53  67 SE8G17    30.45R
$$

AZZ023-280500-
GREATER PHOENIX AREA

CITY           SKY/WX    TMP DP  RH WIND       PRES   REMARKS
PHOENIX        MOCLDY    97  56  25 SW7       29.91R
BUCKEYE          N/A     90  59  35 S5        29.92R
LUKE AFB       NOT AVBL
DEER VALLEY    PTCLDY    94  56  27 SW7       29.93R
SCOTTSDALE     PTCLDY    95  55  26 SW3       29.96R
MESA-GATEWAY     N/A    N/A N/A N/A MISG        N/A
CHANDLER       MOCLDY    95  55  26 SW8       29.94R
$$

AZZ027-028-280500-
SOUTHWEST MARICOPA COUNTY AND PINAL COUNTY

CITY           SKY/WX    TMP DP  RH WIND       PRES   REMARKS
CASA GRANDE    PTCLDY    93  57  29 CALM      29.97R
$$

AZZ503-504-507>509-280500-
SOUTHEAST ARIZONA

CITY           SKY/WX    TMP DP  RH WIND       PRES   REMARKS
TUCSON         CLOUDY    85  58  39 NE23G40   30.09R
DAVIS-MONTHAN  MOCLDY    82  61  49 NE25G41   30.07R
NOGALES        MOCLDY    84  61  45 W3        30.14R
SIERRA VISTA   TSTM      71  60  68 E14G28    30.27R
SAFFORD        LGT RAIN  71  65  81 NW13      30.16R
$$

AZZ020-021-025-026-031-280500-
SOUTHWEST ARIZONA

CITY           SKY/WX    TMP DP  RH WIND       PRES   REMARKS
YUMA           CLEAR     95  63  34 W3        29.87R
$$

CAZ031-033-041-043-047-048-061-280500-
SOUTHERN CALIFORNIA

CITY           SKY/WX    TMP DP  RH WIND       PRES   REMARKS
DOWNTOWN L.A.  PTCLDY    73  63  70 CALM      29.92S
L.A. AIRPORT   MOCLDY    69  64  84 W16       29.94R
SAN DIEGO      MOCLDY    73  65  75 NW3       29.99R
BURBANK        PTCLDY    82  52  35 W3        29.94S
ONTARIO        CLOUDY    86  50  28 W10       29.94R
RIVERSIDE      CLOUDY    87  50  27 W6        29.94R
PALM SPRINGS   MOCLDY    95  63  34 CALM      29.88R
EL CENTRO NAS  PTCLDY    92  63  38 SE9       29.84R
IMPERIAL       PTCLDY    94  64  37 SE9       29.84R
BLYTHE           N/A    N/A N/A N/A MISG      29.86R
$$

NVZ020-UTZ003-280500-
SOUTHERN NEVADA-UTAH

CITY           SKY/WX    TMP DP  RH WIND       PRES   REMARKS
LAS VEGAS      NOT AVBL
SALT LAKE CITY MOCLDY    84  39  20 SE5       30.09R
$$

NMZ009-TXZ055-280500-
NEW MEXICO-WEST TEXAS

CITY           SKY/WX    TMP DP  RH WIND       PRES   REMARKS
ALBUQUERQUE    PTCLDY    75  54  47 N12       30.27R
EL PASO        CLOUDY    89  52  28 W13       30.11R
$$


........................KEY........................
SKY/WX - SKY CONDITION/WEATHER
TMP    - TEMPERATURE IN FAHRENHEIT
DP     - DEW POINT IN FAHRENHEIT
RH     - RELATIVE HUMIDITY IN PERCENT
WIND   - DIRECTION AND SPEED IN MILES PER HOUR (MPH)
VRB    - VARIABLE WIND DIRECTION
PRES   - MEAN SEA LEVEL PRESSURE IN INCHES OF MERCURY
         F - FALLING PRESSURE   R - RISING PRESSURE
         S - STEADY PRESSURE
VSB    - VISIBILITY IN MILES
HX     - HEAT INDEX IN FAHRENHEIT
WCI    - WIND CHILL INDEX IN FAHRENHEIT
TC     - TEMPERATURE IN CELSIUS WHICH IS ALSO KNOWN AS
         TEMPERATURE IN CENTIGRADE
AFB    - AIR FORCE BASE
         LUKE AFB IS LUKE AIR FORCE BASE
         DAVIS-MONTHAN IS DAVIS-MONTHAN AIR FORCE BASE
NAS    - NAVAL AIR STATION
         EL CENTRO NAS IS EL CENTRO NAVAL AIR STATION
N/A    - NOT AVAILABLE



USA.gov is the U.S. government's official web portal to all federal, state and local government web resources and services.